User: anonymous
Location: Unspecified
(0.0000°N, 0.0000°E)
Time: 18:08:06
(UTC+02:00)
Language:

Landsat 4 - Orbit

View from above orbital plane
View from above orbital plane
View from above satellite
View from above satellite

Ground track
Ground track

The orbit data is extracted from the following two-line orbital elements,

1 13367U 82072A   14264.15763579  .00003244  00000-0  19984-3 0  7455
2 13367 098.2030 334.0834 0014691 002.4091 055.2189 15.10708565733704
Epoch (UTC): 21 September 2014 03:46:59
Eccentricity: 0.0014691
inclination: 98.2030°
perigee height: 524 km
apogee height: 544 km
right ascension of ascending node: 334.0834°
argument of perigee: 2.4091°
revolutions per day: 15.10708565
mean anomaly at epoch: 55.2189°
orbit number at epoch: 73370

The dashed part of the orbit path shows where the satellite is in the earth's shadow,  

DLR